Location: Utrecht
(52.0907°N, 5.1214°E)
Time: 16:53:58
(UTC+02:00)

NANOSAT C BR1 - Pass Details

Date: 28 June 2022
Orbit: 584 x 599 km, 98.0° (Epoch: 14 August)

Event Time Altitude Azimuth Distance (km) Brightness Sun altitude
Rises 04:19:59 0° 11° (NNE) 2,847 ? -7.2°
Reaches altitude 10° 04:22:10 10° 8° (N) 1,943 ? -7.0°
Maximum altitude 04:26:20 60° 289° (WNW) 689 ? -6.6°
Drops below altitude 10° 04:30:28 10° 210° (SSW) 1,936 ? -6.2°
Enters shadow 04:31:00 - 209° (SSW) 2,152 ? -6.2°
